User: anonymous   Login
Location: Unspecified
(0.0000°N, 0.0000°E)
Time: 14:12:03
(UTC+01:00)
Language:

ARIANE 44L R/B - Orbit

View from above orbital plane
View from above orbital plane
View from above satellite
View from above satellite

Ground track
Ground track

The orbit data is extracted from the following two-line orbital elements,

1 26901U 01039B   15030.69898885  .00004148  00000-0  17391-2 0  2141
2 26901 007.1293 216.1485 6955225 188.7649 089.0086 02.68056359119721
Epoch (UTC): 30 January 2015 16:46:32
Eccentricity: 0.6955225
inclination: 7.1293°
perigee height: 287 km
apogee height: 30737 km
right ascension of ascending node: 216.1485°
argument of perigee: 188.7649°
revolutions per day: 2.68056359
mean anomaly at epoch: 89.0086°
orbit number at epoch: 11972

The dashed part of the orbit path shows where the satellite is in the earth's shadow,  

DLR